Terug naar catalogus

ONEWEB-0448

ActiefCommunicatiePO
NORAD 51641·PAYLOAD·🇬🇧 United Kingdom

Gelanceerd Feb 10, 2022 vanaf Guiana Space Centre

Loading…

Volgende Passages (komende 24 uur)

TLE

VersSource: CelesTrak SupGP

Epoch: Sep 14, 2026, 23:32 UTC

1 51641C 22012V   26257.98109214 -.00002645  00000+0 -75869-2 0  2572
2 51641  87.8893  18.3989 0001743 103.6641 296.2887 13.10370585    12

Volg ONEWEB-0448 in realtime met AllMySat

Download on the App Store